Change the Weather History Date:

Saturday, February 9, 2013

  Actual Average Record
Temperature  
Mean Temperature 29 °F 34 °F  
Max Temperature 34 °F 43 °F 67 °F (1990)
Min Temperature 24 °F 26 °F -9 °F (1934)
Degree Days  
Heating Degree Days 36 31  
Month to date heating degree days 320 281  
Since 1 July heating degree days 2880 3042  
Cooling Degree Days 0 0  
Month to date cooling degree days 0 0  
Year to date cooling degree days 0 0  
Moisture  
Dew Point 22 °F    
Average Humidity 71    
Maximum Humidity 92    
Minimum Humidity 50    
Precipitation  
Precipitation 0.09 in 0.10 in 1.02 in (1882)
Month to date precipitation 2.33 0.87  
Year to date precipitation 4.63 4.09  
Snow  
Snow 1.30 in 0.30 in 4.10 in (1987)
Month to date snowfall 5.0 2.3  
Since 1 July snowfall 10.1 10.7  
Snow Depth 1.00 in    
Sea Level Pressure  
Sea Level Pressure 29.99 in    
Wind  
Wind Speed 20 mph (NW)    
Max Wind Speed 32 mph    
Max Gust Speed 41 mph    
Visibility 7 miles    
Events Snow    
T = Trace of Precipitation, MM = Missing Value Source: NWS Daily Summary

Daily Weather History Graph

Daily Weather History Graph

Search for Another Location

Airport or City:

Trip Planner

Search our weather history database for the weather conditions in past years. The results will help you decide how hot, cold, wet, or windy it might be!

Date:

Astronomy

Feb. 09, 2013 Rise Set
Actual Time 6:57 AM EST 5:28 PM EST
Civil Twilight 6:29 AM EST 5:56 PM EST
Nautical Twilight 5:57 AM EST 6:27 PM EST
Astronomical Twilight 5:26 AM EST 6:59 PM EST
Moon 6:07 AM EST (2/9) 5:07 PM EST (2/9)
Length of Visible Light 11h 26m
Length of Day
10h 31m
Waning Crescent, 0% of the Moon is Illuminated
Feb 9
Waning Crescent
Feb 10
New
Feb 17
First Quarter
Feb 25
Full
Mar 4
Last Quarter

Hourly Weather History & Observations

Time (EST) Temp. Windchill Dew Point Humidity Pressure Visibility Wind Dir Wind Speed Gust Speed Precip Events Conditions
12:20 AM 32.0 °F 20.5 °F 28.9 °F 88% 29.76 in 2.0 mi NNW 18.4 mph - 0.00 in Snow Light Snow
12:29 AM 32.0 °F 21.2 °F 28.9 °F 88% 29.77 in 1.2 mi NNW 16.1 mph - 0.00 in Snow Light Snow
1:01 AM 30.9 °F 20.2 °F 28.9 °F 92% 29.78 in 1.0 mi NNW 15.0 mph - 0.01 in Snow Light Snow
1:28 AM 32.0 °F 21.2 °F 28.9 °F 88% 29.78 in 1.5 mi NW 16.1 mph - 0.02 in Snow Light Snow
1:37 AM 32.0 °F 21.6 °F 28.9 °F 88% 29.78 in 2.5 mi NW 15.0 mph - 0.03 in Snow Light Snow
1:54 AM 32.0 °F 22.5 °F 28.9 °F 88% 29.79 in 2.5 mi NW 12.7 mph - 0.03 in Snow Light Snow
2:02 AM 32.0 °F 22.5 °F 28.9 °F 88% 29.79 in 1.8 mi NW 12.7 mph - 0.00 in Snow Light Snow
2:17 AM 32.0 °F 22.5 °F 28.9 °F 88% 29.80 in 1.0 mi NW 12.7 mph - 0.01 in Snow Light Snow
2:54 AM 32.0 °F 20.1 °F 28.9 °F 88% 29.81 in 0.8 mi NW 19.6 mph 28.8 mph 0.04 in Snow Light Snow
3:14 AM 30.9 °F 18.4 °F 28.0 °F 89% 29.82 in 3.0 mi WNW 20.7 mph 29.9 mph 0.01 in Snow Light Snow
3:30 AM 30.9 °F 18.1 °F 27.0 °F 85% 29.83 in 7.0 mi WNW 21.9 mph 28.8 mph 0.01 in Snow Light Snow
3:44 AM 30.0 °F 17.5 °F 26.1 °F 85% 29.83 in 8.0 mi WNW 19.6 mph 31.1 mph 0.01 in Snow Light Snow
3:54 AM 30.0 °F 16.6 °F 26.1 °F 85% 29.84 in 4.0 mi WNW 23.0 mph 33.4 mph 0.01 in Snow Light Snow
4:04 AM 28.9 °F 14.5 °F 26.1 °F 89% 29.85 in 2.0 mi WNW 25.3 mph 32.2 mph 0.00 in Snow Light Snow
4:14 AM 28.9 °F 14.0 °F 25.0 °F 85% 29.85 in 1.8 mi NW 27.6 mph 39.1 mph 0.00 in Snow Light Snow
4:16 AM 28.9 °F 14.0 °F 25.0 °F 85% 29.85 in 2.0 mi WNW 27.6 mph 39.1 mph 0.00 in Snow Light Snow
4:57 AM 27.0 °F 11.3 °F 23.0 °F 85% 29.88 in 2.5 mi NW 27.6 mph 38.0 mph 0.00 in Snow Light Snow
5:06 AM 27.0 °F 11.9 °F 23.0 °F 85% 29.89 in 3.0 mi NW 25.3 mph 36.8 mph 0.00 in Snow Light Snow
5:54 AM 27.0 °F 11.9 °F 21.0 °F 78% 29.92 in 5.0 mi NW 25.3 mph 34.5 mph 0.00 in Snow Light Snow
6:54 AM 26.1 °F 12.0 °F 19.9 °F 78% 29.96 in 10.0 mi NW 20.7 mph 28.8 mph 0.00 in   Overcast
7:54 AM 25.0 °F 9.5 °F 19.0 °F 78% 29.99 in 10.0 mi WNW 24.2 mph 32.2 mph N/A   Clear
8:54 AM 26.1 °F 9.8 °F 19.0 °F 75% 30.02 in 10.0 mi NW 28.8 mph 36.8 mph N/A   Overcast
9:54 AM 27.0 °F 11.3 °F 19.0 °F 72% 30.03 in 10.0 mi NW 27.6 mph 40.3 mph N/A   Clear
10:54 AM 28.9 °F 15.1 °F 19.0 °F 67% 30.06 in 10.0 mi NW 23.0 mph 28.8 mph N/A   Clear
11:54 AM 30.9 °F 17.2 °F 19.9 °F 64% 30.08 in 10.0 mi NW 25.3 mph 31.1 mph N/A   Clear
12:54 PM 32.0 °F 18.1 °F 19.9 °F 61% 30.09 in 10.0 mi NW 27.6 mph 35.7 mph N/A   Clear
1:54 PM 33.1 °F 20.1 °F 19.0 °F 56% 30.11 in 10.0 mi NW 25.3 mph 35.7 mph N/A   Clear
2:54 PM 34.0 °F 21.5 °F 19.0 °F 54% 30.12 in 10.0 mi NW 24.2 mph 32.2 mph N/A   Clear
3:54 PM 34.0 °F 22.7 °F 18.0 °F 52% 30.15 in 10.0 mi NW 19.6 mph 31.1 mph N/A   Clear
4:54 PM 33.1 °F 20.1 °F 17.1 °F 52% 30.18 in 10.0 mi WNW 25.3 mph 32.2 mph N/A   Clear
5:54 PM 30.0 °F 19.1 °F 16.0 °F 56% 30.22 in 10.0 mi WNW 15.0 mph - N/A   Clear
6:54 PM 28.9 °F 17.3 °F 16.0 °F 58% 30.24 in 10.0 mi WNW 16.1 mph - N/A   Clear
7:54 PM 27.0 °F 17.3 °F 15.1 °F 61% 30.28 in 10.0 mi NW 10.4 mph - N/A   Clear
8:54 PM 26.1 °F 16.2 °F 15.1 °F 63% 30.31 in 10.0 mi NW 10.4 mph - N/A   Clear
9:54 PM 25.0 °F 14.2 °F 12.0 °F 58% 30.32 in 10.0 mi NW 11.5 mph - N/A   Clear
10:54 PM 25.0 °F 12.6 °F 9.0 °F 51% 30.33 in 10.0 mi NNW 15.0 mph 25.3 mph N/A   Clear
11:54 PM 24.1 °F 11.5 °F 8.1 °F 51% 30.36 in 10.0 mi NNW 15.0 mph - N/A   Clear